Location: Eaton
(41.3139°N, 82.0207°W)
Time: 11:21:19
(UTC+00:00)

FALCON 9 DEB - Pass Details

Date: 17 June 2021
Orbit: 422 x 432 km, 53.0° (Epoch: 30 July)

Event Time Altitude Azimuth Distance (km) Brightness Sun altitude
Rises 08:21:19 0° 312° (NW) 2,388 6.9 -14.0°
Reaches altitude 10° 08:23:30 10° 319° (NW) 1,517 6.0 -13.7°
Maximum altitude 08:26:45 42° 32° (NNE) 616 4.5 -13.3°
Drops below altitude 10° 08:29:59 10° 105° (ESE) 1,505 6.2 -12.9°
Sets 08:32:09 0° 113° (ESE) 2,366 7.1 -12.6°
